Location: Atbuku
(36.4936°N, 30.4362°E)
Time: 21:25:00
(UTC+00:00)

Daily predictions for brighter satellites

Satellite Brightness Start Highest point End
(mag) Time Altitude Azimuth Time Altitude Azimuth Time Altitude Azimuth
NOSS 2-3 (E) 3.1 15:08:24 10° SSW 15:12:13 73° ESE 15:15:51 10° NE
CZ-2D R/B 3.8 15:09:41 10° SE 15:12:18 25° ENE 15:14:56 10° NNE
NOSS 2-3 (D) 3.2 15:09:06 10° SSW 15:12:56 67° ESE 15:16:35 10° NE
IRS-1C 4.5 15:10:03 10° SE 15:15:02 43° ENE 15:20:03 10° N
IRIDIUM 114 4.4 15:10:55 10° N 15:16:06 62° E 15:21:15 10° SSE
Okean 1-7 Rocket 3.9 15:12:59 10° N 15:17:11 44° E 15:21:19 10° SSE
Cosmos 1461 4.5 15:15:19 10° WSW 15:18:41 28° NW 15:22:07 10° N
Cosmos 1933 3.2 15:15:22 10° S 15:19:09 63° E 15:22:56 10° NNE
Cosmos 1602 Rocket 3.5 15:15:05 10° N 15:19:27 74° E 15:23:45 10° SSE
YAOGAN 1 4.3 15:18:44 10° E 15:20:26 12° ENE 15:22:07 10° NE
Cosmos 2227 Rocket 2.8 15:16:45 10° N 15:21:49 33° ENE 15:26:52 10° SE
H-II Stage 2 4.5 15:05:56 10° W 15:23:56 43° SSW 15:28:00 10° SE
Milstar 3 Cent rocket 4.5 15:16:06 10° WSW 15:24:10 57° S 15:41:45 10° ESE
IRIDIUM 103 4.3 15:20:03 10° N 15:25:16 77° E 15:30:28 10° S
SJ-12 4.0 15:22:25 10° SE 15:25:59 42° ENE 15:29:34 10° N
BREEZE-M DEB (TANK) 4.5 15:23:52 10° NNW 15:27:01 23° NNE 15:33:52 11° E
SKYMED 2 4.4 15:23:26 10° NE 15:27:16 30° E 15:31:05 10° SSE
Cosmos 1697 Rocket 2.9 15:23:55 10° SSW 15:29:30 73° WNW 15:35:07 10° NNE
Cosmos 990 Rocket 4.0 15:26:31 10° SSW 15:31:38 85° WNW 15:36:47 10° NNE
Cosmos 1655 Rocket 4.4 15:25:55 10° N 15:31:42 39° ENE 15:37:27 10° SE
Aureole 1 Rocket 3.6 15:29:53 10° SSE 15:33:39 39° E 15:38:20 10° NNE
Cosmos 1743 3.5 15:30:51 10° NNW 15:33:58 45° W 15:37:02 10° SSW
Cosmos 2151 3.1 15:30:16 10° N 15:34:25 75° W 15:38:34 10° S
MOS 1 Rocket 3.6 15:30:02 10° SSE 15:34:41 50° ENE 15:39:37 10° N
Cosmos 1867 3.7 15:32:24 10° NNW 15:37:42 50° ENE 15:42:57 10° SE
SAR-Lupe-4 3.4 15:36:44 10° SSE 15:40:16 73° ENE 15:43:48 10° N
ARIANE 5 R/B 2.4 15:35:49 10° SSE 15:40:50 79° ENE 15:45:58 10° N
Cosmos 1953 Rocket 4.1 15:39:10 10° NNE 15:43:15 35° ENE 15:47:19 10° SE
Cosmos 1607 4.0 15:37:44 10° NNW 15:44:01 88° WSW 15:50:21 10° SSE
COSMOS 2455 4.1 15:40:03 10° SSE 15:44:14 20° ESE 15:46:27 16° ENE
BREEZE M DEB (TANK) 3.2 15:38:02 10° NW 15:46:43 50° NNE 15:48:58 19° E
Cosmos 1900 4.3 15:42:33 10° NNW 15:47:33 67° ENE 15:52:26 10° SE
SAR-Lupe-1 4.0 15:47:29 10° SSE 15:51:03 87° E 15:54:40 10° NNW
Cosmos 1825 Rocket 3.4 15:48:18 10° N 15:52:39 83° E 15:56:56 10° S
Cosmos 2084 Rocket 3.3 15:48:43 10° NNW 15:52:55 78° ENE 15:57:07 10° SE
CZ-2D R/B 4.0 15:52:46 10° SE 15:56:36 36° ENE 16:00:25 10° N
USA 81 4.4 15:51:54 10° N 15:56:54 42° E 16:01:51 10° SSE
SPOT 1/Viking Rocket 3.6 15:52:36 10° SSE 15:57:37 52° ENE 16:02:40 10° N
Helios 1A Rocket 3.3 15:58:29 28° E 15:58:41 28° E 16:01:39 10° SSE
SMAP 4.4 15:57:22 10° S 16:01:47 43° W 16:06:14 10° NNW
PSLV R/B 4.5 16:00:34 10° SE 16:06:53 14° NNE 16:07:33 10° N
IRS-P3 4.1 15:59:09 10° SSE 16:04:28 89° ENE 16:09:48 10° NNW
EXPRESS MD2 3.6 16:02:16 10° W 16:04:35 35° NNW 16:05:46 25° NNE
CZ-4C R/B 3.2 15:58:40 10° NNW 16:06:17 88° WSW 16:15:22 10° SSE
Cosmos 2058 Rocket 3.0 16:04:48 10° S 16:09:14 71° E 16:13:33 11° NNE
Cosmos 1076 Rocket 3.4 16:06:46 10° N 16:11:06 84° E 16:15:24 10° S
Cosmos 2297 Rocket 3.9 16:09:16 10° NW 16:14:20 34° WSW 16:19:23 10° SSW
SL-16 R/B 3.5 16:10:51 10° SSE 16:14:14 21° ESE 16:14:14 21° ESE
COSMO-SKYMED 1 2.3 16:12:52 20° NNE 16:15:42 72° ESE 16:19:46 10° S
Meteor 1-26 Rocket 4.0 16:12:23 10° S 16:17:47 73° E 16:23:09 10° NNE
Cosmos 1553 Rocket 3.9 16:16:42 10° S 16:22:42 63° E 16:28:51 10° NNE
Cosmos 1538 Rocket 3.9 16:17:55 10° N 16:23:12 64° ENE 16:28:28 10° SSE
Resurs 1-3 3.4 16:27:42 10° SSE 16:31:58 78° ENE 16:36:17 10° N
Cosmos 1980 Rocket 3.0 16:27:32 10° SW 16:32:59 48° WNW 16:37:57 12° N
Cosmos 2219 3.3 16:29:08 10° N 16:34:43 50° ENE 16:35:52 44° E
Spot 4 Rocket 4.0 16:35:19 10° SSE 16:40:25 85° WSW 16:45:33 10° NNW
Hubble Space Telescope 2.3 16:40:37 10° SW 16:43:32 23° S 16:43:32 23° S
Cosmos 2369 3.9 16:40:01 10° SSW 16:45:42 70° WNW 16:48:45 29° N
Cosmos 1898 Rocket 4.2 16:41:38 10° SW 16:46:37 51° WNW 16:49:57 20° N
Cosmos 2263 Rocket 2.2 16:43:55 10° NNW 16:49:37 81° WSW 16:55:17 10° SSE
DMSP B5D1-3 4.3 16:49:09 64° NNE 16:49:55 81° ESE 16:54:58 10° S
SL-24 R/B - RUBIN 2 3.9 16:44:45 10° SSW 16:50:24 89° WNW 16:51:13 65° NNE
Cosmos 1244 Rocket 4.4 16:44:47 10° N 16:51:04 85° W 16:57:14 10° S
OAO 1 4.4 16:49:24 10° W 16:54:56 78° S 16:55:20 73° SE
YAOGAN 1 3.3 16:51:39 10° S 16:55:47 51° W 16:59:57 10° NNW
Cosmos 1417 Rocket 4.3 16:54:50 10° S 17:01:00 71° E 17:01:08 70° E
Cosmos 1937 Rocket 4.3 17:00:33 10° SW 17:05:31 47° WNW 17:07:22 33° NNW
Cosmos 2227 Rocket 4.0 17:00:51 10° NW 17:05:42 30° WSW 17:10:33 10° SSW
H-2A R/B 3.1 17:03:25 10° WSW 17:06:33 36° SSE 17:06:43 36° SSE
Cosmos 2333 Rocket 3.6 17:06:46 10° S 17:09:14 26° S 17:09:14 26° S
BREEZE-M DEB (TANK) 4.4 17:03:42 10° WNW 17:19:11 46° NNE 17:19:11 46° NNE
BREEZE-M DEB (TANK) 4.4 17:21:27 10° WSW 17:27:30 45° WNW 17:27:30 45° WNW
USA 59 Rocket 2.7 17:24:56 10° SSW 17:25:15 12° SSW 17:25:15 12° SSW
COSMOS 2455 3.3 17:23:44 10° SW 17:29:38 57° WNW 17:29:38 57° WNW
Cosmos 2322 Rocket 4.3 17:24:14 10° S 17:25:07 15° S 17:25:07 15° S
SL-16 R/B 3.9 17:53:22 10° SW 17:56:09 27° WSW 17:56:09 27° WSW
